Regional Weather Roundup
Issued by NWS

Home | Current Version | Previous Version | Graphics & Text | Print | Product List | Glossary On
Versions: 1 2 3 4 5 6 7 8 9 10 11 12 13 14 15 16 17 18 19 20 21 22 23 24 25 26 27 28 29 30 31 32 33 34 35 36 37 38 39 40 41 42 43 44 45 46 47 48 49 50
000
ASUS43 KFSD 020602
RWRSD

WEATHER ROUNDUP FOR SOUTH DAKOTA
NATIONAL WEATHER SERVICE SIOUX FALLS SD
100 AM CDT MON MAY 02 2016

NOTE: "FAIR" INDICATES FEW OR NO CLOUDS BELOW 12,000 FEET WITH NO
SIGNIFICANT WEATHER AND/OR OBSTRUCTIONS TO VISIBILITY.


SDZ001>005-009-010-012>017-020700-
NORTHWEST AND NORTH CENTRAL SOUTH DAKOTA

CITY           SKY/WX    TMP DP  RH WIND       PRES   REMARKS
BUFFALO          N/A     42  30  62 W8        30.13S
FAITH            N/A     41  31  67 SW10      30.18F
MOBRIDGE       CLEAR     39  33  79 SE5       30.14S
$$

SDZ012>016-024>037-041>051-057-063-072>074-020700-
SOUTHWEST AND SOUTH CENTRAL SOUTH DAKOTA

CITY           SKY/WX    TMP DP  RH WIND       PRES   REMARKS
RAPID CTY ARPT CLEAR     34  29  82 W6        30.23F WCI  29
PIERRE         CLEAR     43  35  73 SW7       30.18F
CUSTER         CLEAR     31  24  75 NW6       30.25F WCI  25
ELLSWORTH AFB  CLEAR     38  30  73 W7        30.22F
PHILIP         CLEAR     38  32  79 W6        30.21F
PINE RIDGE     CLEAR     31  27  85 CALM      30.24F
WINNER         FAIR      40  33  76 SW6       30.21F
$$

SDZ004>011-016>023-039-040-020700-
NORTHEAST SOUTH DAKOTA

CITY           SKY/WX    TMP DP  RH WIND       PRES   REMARKS
ABERDEEN       CLEAR     41  32  70 W7        30.16S
WATERTOWN      CLEAR     42  33  70 CALM      30.15S
BROOKINGS      CLEAR     42  33  70 NW3       30.16R
SISSETON         N/A     41  31  67 CALM      30.13S
$$

SDZ017-020-022-023-036>040-048>070-020700-
SOUTHEAST SOUTH DAKOTA

CITY           SKY/WX    TMP DP  RH WIND       PRES   REMARKS
SIOUX FALLS    CLEAR     39  35  86 CALM      30.17S
HURON          CLEAR     42  35  76 CALM      30.17S
MITCHELL       CLEAR     44  38  79 W6        30.19S
YANKTON        CLEAR     43  37  81 CALM      30.17F
$$

ABBREVIATIONS USED IN REMARKS
   TC - TEMPERATURE IN CELSIUS
  WCI - WIND CHILL INDEX
   HX - HEAT INDEX
  VSB - VISIBILITY




USA.gov is the U.S. government's official web portal to all federal, state and local government web resources and services.